GEFSGL_con_prob3kmehi_186.txt.gz
EHI
29 24 18 16 15 12 10 7 5 4 4 6 9 8 6 5 6 5 4 3 2 1 0 0 0 0 0 0 0 0 0 0 0 0 0 0 0 0 0 0 0 0 0
33 27 19 15 13 11 10 9 6 4 4 6 7 7 5 4 5 5 4 2 1 0 0 0 0 0 0 0 0 0 0 0 0 0 0 0 0 0 0 0 0 0 0
36 29 19 12 10 10 10 9 6 5 6 7 7 6 4 4 4 4 4 3 1 0 0 0 0 0 0 0 0 0 0 0 0 0 0 0 0 0 0 0 0 0 0
37 30 20 12 10 10 9 7 5 5 6 7 7 7 6 4 4 4 4 3 1 0 0 0 0 0 0 0 0 0 0 0 0 0 0 0 0 0 0 0 0 0 0
39 33 23 15 13 11 8 6 4 3 4 5 7 8 7 6 5 3 3 2 1 0 0 0 0 0 0 0 0 0 0 0 0 0 0 0 0 0 0 0 0 0 0
41 35 26 20 16 12 9 7 5 4 4 5 7 8 8 7 4 2 2 2 1 0 0 0 0 0 0 0 0 0 0 0 0 0 0 0 0 0 0 0 0 0 0
41 36 28 21 15 10 8 7 7 7 7 8 8 8 6 5 3 1 1 1 1 1 0 0 0 0 0 0 0 0 0 0 0 0 0 0 0 0 0 0 0 0 0
40 35 28 21 14 9 7 7 8 9 8 8 7 6 4 2 1 0 0 0 0 0 0 0 0 0 0 0 0 0 0 0 0 0 0 0 0 0 0 0 0 0 0
39 35 29 24 18 12 9 9 9 10 9 7 5 3 1 1 0 0 0 0 0 0 0 0 0 0 0 0 0 0 0 0 0 0 0 0 0 0 0 0 0 0 0
38 34 30 26 21 15 11 10 10 10 9 8 5 2 1 1 0 0 0 0 0 0 0 0 0 0 0 0 0 0 0 0 0 0 0 0 0 0 0 0 0 0 0
35 32 28 25 20 14 10 10 10 9 7 6 5 3 1 1 0 0 0 0 0 0 0 0 0 0 0 0 0 0 0 0 0 0 0 0 0 0 0 0 0 0 0
31 28 23 20 16 12 9 9 9 7 5 4 4 3 3 2 1 0 0 0 0 0 0 0 0 0 0 0 0 0 0 0 0 0 0 0 0 0 0 0 0 0 0
27 24 20 17 14 12 11 9 8 6 4 3 3 3 3 3 2 1 0 0 0 0 0 0 0 0 0 0 0 0 0 0 0 0 0 0 0 0 0 0 0 0 0
25 21 18 15 13 12 11 9 7 5 4 3 3 4 4 3 3 2 1 0 0 0 0 0 0 0 0 0 0 0 0 0 0 0 0 0 0 0 0 0 0 0 0
21 19 16 14 12 11 10 7 5 3 3 2 3 4 4 3 2 2 1 0 0 0 0 0 0 0 0 0 0 0 0 0 0 0 0 0 0 0 0 0 0 0 0
18 16 14 12 10 9 8 6 3 1 1 1 1 2 2 1 0 1 1 0 0 0 0 0 0 0 0 0 0 0 0 0 0 0 0 0 0 0 0 0 0 0 0
14 13 11 10 9 8 8 6 3 1 0 0 0 0 0 0 0 0 0 0 0 0 0 0 0 0 0 0 0 0 0 0 0 0 0 0 0 0 0 0 0 0 0
10 10 8 8 8 7 7 6 4 2 1 0 0 0 0 0 0 0 0 0 0 0 0 0 0 0 0 0 0 0 0 0 0 0 0 0 0 0 0 0 0 0 0
7 7 7 6 5 5 4 4 3 3 1 0 0 0 0 0 0 0 0 0 0 0 0 0 0 0 0 0 0 0 0 0 0 0 0 0 0 0 0 0 0 0 0
5 5 6 5 3 1 1 1 1 2 1 1 0 0 0 0 0 0 0 0 0 0 0 0 0 0 0 0 0 0 0 0 0 0 0 0 0 0 0 0 0 0 0
4 4 5 4 1 0 0 0 0 1 1 1 1 0 0 0 0 0 0 0 0 0 0 0 0 0 0 0 0 0 0 0 0 0 0 0 0 0 0 0 0 0 0
3 3 4 3 1 0 0 0 0 0 0 0 0 0 0 0 0 0 0 0 0 0 0 0 0 0 0 0 0 0 0 0 0 0 0 0 0 0 0 0 0 0 0
3 3 3 1 0 0 0 0 0 0 0 0 0 0 0 0 0 0 0 0 0 0 0 0 0 0 0 0 0 0 0 0 0 0 0 0 0 0 0 0 0 0 0
3 3 2 1 0 0 0 0 0 0 0 0 0 0 0 0 0 0 0 0 0 0 0 0 0 0 0 0 0 0 0 0 0 0 0 0 0 0 0 0 0 0 0
3 3 2 1 0 0 0 0 0 0 0 0 0 0 0 0 0 0 0 0 0 0 0 0 0 0 0 0 0 0 0 0 0 0 0 0 0 0 0 0 0 0 0
3 3 2 1 0 0 0 0 0 0 0 0 0 0 0 0 0 0 0 0 0 0 0 0 0 0 0 0 0 0 0 0 0 0 0 0 0 0 0 0 0 0 0

GEFSGL_con_prob3kmehi_192.txt.gz
EHI
19 16 11 9 10 9 7 6 5 4 3 3 3 4 5 5 3 2 2 3 3 3 3 3 3 3 3 1 0 0 0 0 0 0 0 0 0 0 0 0 0 0 0
20 16 11 9 9 9 8 6 5 4 4 4 4 4 4 4 3 3 3 4 4 3 3 3 3 3 3 2 0 0 0 0 0 0 0 0 0 0 0 0 0 0 0
20 17 13 10 9 9 8 7 6 6 6 5 5 4 3 3 3 3 4 5 5 4 3 3 3 3 3 2 0 0 0 0 0 0 0 0 0 0 0 0 0 0 0
21 19 15 11 10 9 8 8 7 7 6 5 4 3 3 3 3 3 3 4 4 4 3 3 3 3 3 2 0 0 0 0 0 0 0 0 0 0 0 0 0 0 0
25 23 18 12 9 7 7 8 8 7 6 4 3 3 3 3 3 3 3 3 3 3 3 3 3 3 2 1 0 0 0 0 0 0 0 0 0 0 0 0 0 0 0
32 28 22 15 10 8 7 7 7 6 5 4 3 3 3 3 3 3 3 3 3 3 3 3 3 2 1 0 0 0 0 0 0 0 0 0 0 0 0 0 0 0 0
33 29 24 18 13 10 8 7 7 6 4 3 3 3 3 3 2 1 1 3 3 3 3 2 1 1 0 0 0 0 0 0 0 0 0 0 0 0 0 0 0 0 0
29 25 21 18 16 12 10 8 7 6 4 3 3 3 3 3 2 0 1 2 3 3 2 1 0 0 0 0 0 0 0 0 0 0 0 0 0 0 0 0 0 0 0
26 22 18 16 16 15 12 10 9 6 4 3 3 3 3 3 2 0 1 2 3 3 1 0 0 0 0 0 0 0 0 0 0 0 0 0 0 0 0 0 0 0 0
25 21 17 16 17 16 13 10 8 6 5 4 3 3 3 3 1 0 1 2 3 2 1 0 0 0 0 0 0 0 0 0 0 0 0 0 0 0 0 0 0 0 0
23 20 16 15 16 13 10 6 4 3 3 3 3 2 2 2 1 0 1 2 2 1 0 0 0 0 0 0 0 0 0 0 0 0 0 0 0 0 0 0 0 0 0
23 19 15 13 11 8 5 3 2 2 2 2 2 1 1 1 0 0 0 1 1 0 0 0 0 0 0 0 0 0 0 0 0 0 0 0 0 0 0 0 0 0 0
24 20 15 12 9 5 3 3 3 3 3 3 2 1 0 0 0 0 0 0 0 0 0 0 0 0 0 0 0 0 0 0 0 0 0 0 0 0 0 0 0 0 0
24 20 16 14 11 6 3 3 4 5 5 4 3 1 1 1 0 0 0 0 0 0 0 0 0 0 0 0 0 0 0 0 0 0 0 0 0 0 0 0 0 0 0
22 20 17 15 11 6 4 3 3 4 5 4 3 2 2 1 0 0 0 0 0 0 0 0 0 0 0 0 0 0 0 0 0 0 0 0 0 0 0 0 0 0 0
21 19 16 13 9 6 5 4 3 3 3 2 1 2 2 1 0 0 0 0 0 0 0 0 0 0 0 0 0 0 0 0 0 0 0 0 0 0 0 0 0 0 0
16 16 15 12 8 6 5 4 3 1 1 0 0 1 1 0 0 0 0 0 0 0 0 0 0 0 0 0 0 0 0 0 0 0 0 0 0 0 0 0 0 0 0
10 10 11 10 7 4 4 3 1 0 0 0 0 0 0 0 0 0 0 0 0 0 0 0 0 0 0 0 0 0 0 0 0 0 0 0 0 0 0 0 0 0 0
6 6 7 6 3 1 1 1 0 0 0 0 0 0 0 0 0 0 0 0 0 0 0 0 0 0 0 0 0 0 0 0 0 0 0 0 0 0 0 0 0 0 0
4 4 3 3 1 0 0 0 0 0 0 0 0 0 0 0 0 0 0 0 0 0 0 0 0 0 0 0 0 0 0 0 0 0 0 0 0 0 0 0 0 0 0
3 3 2 3 2 1 0 0 0 0 0 0 0 0 0 0 0 0 0 0 0 0 0 0 0 0 0 0 0 0 0 0 0 0 0 0 0 0 0 0 0 0 0
3 3 3 3 3 2 1 0 0 0 0 0 0 0 0 0 0 0 0 0 0 0 0 0 0 0 0 0 0 0 0 0 0 0 0 0 0 0 0 0 0 0 0
1 2 3 3 3 3 2 1 0 0 0 0 0 0 0 0 0 0 0 0 0 0 0 0 0 0 0 0 0 0 0 0 0 0 0 0 0 0 0 0 0 0 0
0 1 2 2 3 3 3 2 1 0 0 0 0 0 0 0 0 0 0 0 0 0 0 0 0 0 0 0 0 0 0 0 0 0 0 0 0 0 0 0 0 0 0
0 0 1 1 1 3 3 3 2 1 0 0 0 0 0 0 0 0 0 0 0 0 0 0 0 0 0 0 0 0 0 0 0 0 0 0 0 0 0 0 0 0 0
0 0 0 0 1 2 3 3 3 2 1 0 0 0 0 0 0 0 0 0 0 0 0 0 0 0 0 0 0 0 0 0 0 0 0 0 0 0 0 0 0 0 0

GEFSGL_con_prob3kmehi_198.txt.gz
EHI
47 43 37 32 28 25 21 18 17 17 16 13 11 11 13 15 16 16 14 11 9 7 5 3 3 3 3 4 4 4 2 3 4 5 5 3 1 1 1 2 1 0 0
52 48 41 36 33 29 24 19 18 18 16 12 11 12 13 15 16 16 15 12 10 8 6 5 5 4 3 4 4 4 3 3 3 4 4 3 1 0 1 2 1 0 0
54 51 46 43 42 37 29 23 21 20 17 13 12 14 14 14 15 16 16 14 12 10 9 9 7 4 4 4 4 4 3 3 3 3 3 2 1 0 1 1 1 0 0
55 53 49 47 45 41 35 29 26 23 20 17 16 15 12 11 12 14 15 16 14 12 11 10 7 4 4 4 4 4 3 3 3 3 3 2 1 1 2 2 1 0 0
59 57 52 48 45 42 38 34 31 27 24 22 20 15 10 9 10 12 14 15 15 12 10 8 6 4 2 3 3 3 4 3 3 3 2 1 1 1 3 3 1 0 0
61 60 56 52 47 43 38 34 32 29 27 26 22 16 11 9 8 8 9 12 13 10 7 6 5 3 1 1 1 2 3 3 2 3 3 2 2 2 2 2 1 1 1
61 61 58 53 47 42 36 32 29 27 26 25 23 19 15 11 7 4 4 7 9 8 6 5 5 4 2 2 1 1 1 1 1 2 3 3 2 2 1 1 0 0 0
64 63 58 51 45 40 36 32 29 27 25 24 23 21 18 13 6 2 1 4 6 7 6 4 4 5 4 3 2 1 0 0 0 1 2 2 1 1 0 0 0 0 0
64 62 58 51 45 41 37 33 30 29 28 25 21 19 16 11 6 2 1 3 6 7 6 4 4 5 4 2 2 1 0 0 0 0 1 1 0 0 0 0 0 0 0
60 58 55 51 47 44 40 36 32 30 28 23 18 15 13 10 6 2 1 4 7 7 6 5 4 3 2 1 1 1 1 0 0 0 0 0 0 0 0 0 0 0 0
53 51 50 48 46 44 43 39 32 27 24 18 13 11 10 8 5 1 1 4 7 8 8 7 5 2 0 0 0 1 1 1 1 1 0 0 0 0 0 0 0 0 0
47 45 43 43 42 42 43 39 31 24 20 16 12 11 9 7 4 1 0 1 4 7 8 7 5 2 1 0 0 1 1 1 1 1 0 0 0 0 0 0 0 0 0
45 42 39 38 39 39 39 35 29 23 19 16 14 12 9 6 3 1 1 1 1 4 6 6 3 2 1 0 0 0 0 0 0 0 1 1 1 1 1 0 0 0 0
43 41 36 33 32 33 33 30 25 22 18 15 14 13 10 7 5 3 2 2 1 2 3 3 2 1 0 0 0 0 0 0 0 0 1 2 1 2 2 1 0 0 0
39 37 31 26 24 24 24 22 18 16 14 12 11 11 10 8 5 4 3 2 2 2 2 2 2 2 1 1 1 0 0 0 0 0 1 1 1 2 2 1 0 0 0
35 31 25 20 17 16 17 15 12 9 7 6 6 7 7 6 4 3 2 1 1 1 2 3 3 3 3 2 2 1 1 0 0 0 0 0 0 1 1 0 0 0 0
29 25 20 16 13 13 13 13 10 6 4 3 2 2 3 3 2 1 1 0 0 0 1 2 2 2 2 2 2 2 1 0 0 0 0 0 0 0 0 0 0 0 0
23 20 16 14 13 12 12 13 11 8 6 5 3 1 1 1 1 0 0 0 0 0 0 1 1 1 1 1 1 1 1 0 0 0 0 0 0 0 0 0 0 0 0
17 15 14 14 13 12 13 13 12 10 9 8 6 2 0 0 0 0 0 0 0 0 0 0 0 0 0 0 0 0 0 0 0 0 0 0 0 0 0 0 0 0 0
11 11 11 12 13 13 12 11 10 10 9 8 7 3 1 0 0 0 0 0 0 0 0 0 0 0 0 0 0 0 0 0 0 0 0 0 0 0 0 0 0 0 0
8 8 7 9 11 11 9 8 8 8 6 5 4 3 1 0 1 1 0 0 0 0 0 0 0 0 0 0 0 0 0 0 0 0 0 0 0 0 0 0 0 0 0
5 4 4 5 6 6 5 5 5 5 4 3 3 2 1 0 1 1 0 0 0 0 0 0 0 0 0 0 0 0 0 0 0 0 0 0 0 0 0 0 0 0 0
2 1 1 2 2 2 1 2 2 2 2 2 2 2 1 0 1 1 0 0 0 0 0 0 0 0 0 0 0 1 0 0 0 0 0 0 0 1 1 0 0 0 0
1 0 0 0 0 0 0 0 0 1 1 1 1 1 1 1 1 0 0 0 0 0 0 0 0 0 0 0 0 0 0 0 0 0 0 0 0 1 1 0 0 0 0
0 0 0 0 0 0 0 0 0 0 0 0 0 0 1 2 2 1 0 0 0 0 0 0 0 0 0 0 0 0 0 0 0 0 0 0 0 1 1 0 0 0 0
0 0 0 0 0 0 0 0 0 0 0 0 0 0 1 2 3 2 1 0 0 0 0 0 0 0 0 0 0 0 0 0 0 0 0 0 0 0 0 0 0 0 0

GEFSGL_con_prob3kmehi_204.txt.gz
EHI
61 60 59 56 52 46 39 38 40 38 33 31 30 27 25 25 25 24 21 20 23 23 20 18 17 15 12 8 5 3 2 3 4 6 8 10 8 4 1 2 3 2 2
62 61 60 58 54 50 45 42 44 42 36 32 30 28 26 25 25 25 22 19 21 22 21 19 17 15 14 10 6 4 3 3 4 5 7 9 8 4 2 2 2 3 3
66 65 64 61 58 56 53 51 49 46 41 37 35 32 30 28 27 26 25 22 20 21 21 20 17 16 15 12 9 5 4 3 4 6 7 7 5 3 2 2 2 2 2
68 68 67 64 62 61 60 58 54 48 44 42 40 37 34 32 28 27 26 25 23 23 21 19 17 16 14 11 8 6 3 3 5 6 6 5 3 2 1 1 1 1 1
69 69 67 66 64 63 62 61 58 52 46 42 39 37 35 30 25 23 25 26 25 24 21 18 15 14 12 8 5 4 3 3 4 5 4 3 3 1 0 0 0 0 0
69 68 67 66 65 63 62 61 60 55 48 42 38 35 33 25 16 14 18 23 25 24 21 18 14 11 8 5 2 1 2 2 3 3 3 2 1 1 0 0 0 0 0
68 66 66 66 65 63 61 60 59 55 51 44 38 35 31 22 10 6 9 16 20 21 20 17 13 9 7 4 2 1 1 1 1 2 2 2 1 1 0 0 0 0 0
66 65 65 65 63 60 58 57 56 55 54 49 41 36 30 19 8 3 3 8 15 17 16 15 13 10 7 4 3 3 2 1 0 1 2 2 2 1 0 0 0 0 0
62 63 64 63 59 55 54 54 54 55 55 50 42 35 28 17 7 3 2 7 12 14 12 10 10 9 6 3 3 5 4 2 1 0 1 1 1 0 0 0 0 0 0
57 59 61 60 56 52 52 52 53 54 51 45 39 33 27 18 8 2 2 7 12 11 9 7 6 5 3 1 3 5 5 3 1 1 1 0 0 0 0 0 0 0 0
52 55 56 54 51 50 50 51 52 51 45 39 37 34 27 18 9 2 2 6 9 9 7 7 5 2 1 0 2 4 4 2 1 1 2 1 0 0 0 0 0 0 0
49 52 51 48 47 47 49 49 47 44 39 36 36 34 27 19 11 4 1 2 4 5 5 6 4 1 0 0 1 2 2 0 0 1 2 2 2 1 0 0 0 0 0
47 46 45 44 45 45 45 42 39 37 35 33 33 32 26 20 13 6 2 1 1 1 2 3 2 0 0 0 0 0 0 0 1 1 2 3 3 2 1 1 0 0 0
44 42 41 41 42 40 38 35 31 30 30 30 31 31 26 20 13 8 5 3 1 1 1 1 1 0 0 0 0 0 0 0 1 2 3 4 4 3 2 1 1 0 0
41 39 38 37 37 35 32 28 24 21 21 22 24 25 21 16 11 7 5 3 2 2 2 2 2 2 1 1 1 1 1 0 1 1 2 4 4 2 1 1 1 1 1
37 36 35 33 31 30 26 21 16 12 9 10 12 13 11 8 6 3 2 1 1 2 3 3 3 3 2 1 1 2 2 1 0 0 1 3 3 1 0 0 1 1 2
33 33 31 28 26 23 20 17 13 9 5 4 4 3 3 2 1 0 0 1 1 2 3 3 3 3 3 1 1 2 3 2 2 2 1 1 2 1 0 0 0 1 1
30 29 27 24 21 18 16 15 14 11 8 6 3 1 0 0 0 0 1 2 2 3 3 3 3 3 2 1 1 3 4 4 4 3 1 1 2 2 1 0 0 0 0
24 23 21 19 16 15 14 13 12 11 9 8 6 3 0 0 0 0 1 3 3 3 3 2 2 2 1 1 3 4 4 4 4 3 2 2 2 2 1 0 0 0 0
19 16 14 13 12 12 12 12 11 9 8 8 8 5 2 1 1 1 2 3 3 2 1 1 2 2 2 2 2 3 2 2 4 4 2 1 1 1 0 0 0 0 0
15 12 9 8 9 10 11 12 11 9 7 8 8 6 2 2 2 2 2 2 1 1 1 1 2 2 2 1 1 1 0 1 3 5 3 1 1 1 0 0 0 0 0
12 9 6 5 6 7 9 10 9 8 8 7 7 4 2 2 2 2 1 1 0 0 1 1 1 1 1 0 0 0 1 1 3 5 4 3 2 2 1 0 0 0 0
8 6 3 3 3 3 5 6 6 5 5 5 5 3 1 2 2 1 0 0 1 1 1 1 0 0 0 0 0 0 1 2 3 4 4 3 3 3 2 1 0 0 0
4 3 2 1 1 1 1 2 2 2 1 2 2 1 1 1 1 0 0 0 1 2 1 0 0 0 0 0 0 0 1 2 3 3 3 3 3 3 3 1 0 0 0
1 1 1 1 0 0 0 0 0 0 0 0 0 0 0 0 0 0 0 0 1 1 1 0 0 0 0 0 0 0 0 1 1 2 3 3 2 3 3 2 1 0 0
0 0 0 1 0 0 0 0 0 0 0 0 0 0 0 0 0 0 0 0 0 0 0 0 0 0 0 0 0 0 0 0 0 1 2 2 3 3 3 2 1 0 0